Date String (YYYY-MM-DD hh:mm:ss) UTC,Instrument flags,absolute air pressure of the measurement (hPa),sample flow rate (lpm),inlet stack bypass flow (lpm),air temperature of the measurement (°C),ambient temperature measured by the external sensor (°C),aerosol sample conditioner tube jacket temperature (°C),OPC LED temperature (°C),internal box temperature (°C),relative humidity of the measurement (%),span deviation,mass concentration of particles derived from Lorenz-Mie calculation of OPC scattering (μg/m³),mass concentration of particles derived from Lorenz-Mie calculation of OPC scattering (μg/m³),mass concentration of particles derived from Lorenz-Mie calculation of OPC scattering (μg/m³)
DateTimeUTC,F1_M11,P_M11,Q1_M11,Q2_M11,T1_M11,T2_M11,T3_M11,T4_M11,T5_M11,U1_M11,ZSPAN_M11,X0_M11,X2_M11,X1_M11
2024-06-13 16:00:00,SystemResetWarning,0831.3,5.01,000.00,028.9,027.9,000.0,037.2,030.6,025.7,0000.0,0017.45,0006.23,0005.07
2024-06-13 16:01:00,SystemResetWarning,0831.3,5.00,000.00,029.0,028.2,000.0,037.2,030.8,026.2,0000.0,0019.39,0006.28,0005.11
2024-06-13 16:02:00,SystemResetWarning,0831.3,5.00,000.00,029.0,028.4,000.0,037.2,030.9,024.3,0000.0,0019.86,0006.37,0005.16
2024-06-13 16:03:00,SystemResetWarning,0831.3,5.00,000.00,029.1,028.6,000.0,037.2,031.0,024.1,0000.0,0020.35,0006.39,0005.20
2024-06-13 16:04:00,SystemResetWarning,0831.3,5.00,000.00,029.2,028.8,000.0,037.3,031.1,023.3,0000.0,0021.30,0006.42,0005.22
2024-06-13 16:05:00,SystemResetWarning,0831.3,4.99,000.00,029.3,028.6,000.0,037.3,031.0,023.0,0000.0,0020.85,0006.39,0005.23
2024-06-13 16:06:00,SystemResetWarning,0831.3,5.00,000.00,029.1,026.9,000.0,037.4,030.2,023.2,0000.0,0020.88,0006.41,0005.22
2024-06-13 16:07:00,SystemResetWarning,0831.3,5.02,000.00,028.7,025.8,000.0,037.4,029.6,024.7,0000.0,0020.62,0006.43,0005.22
2024-06-13 16:08:00,SystemResetWarning,0831.3,5.00,000.00,028.7,026.4,000.0,037.4,029.8,024.3,0000.0,0020.11,0006.46,0005.25
2024-06-13 16:09:00,SystemResetWarning,0831.3,4.99,000.00,028.7,026.8,000.0,037.3,030.1,024.4,0000.0,0018.82,0006.48,0005.25
2024-06-13 16:10:00,SystemResetWarning,0831.3,5.00,000.00,028.8,027.2,000.0,037.2,030.3,024.7,0000.0,0018.04,0006.50,0005.26
2024-06-13 16:11:00,SystemResetWarning,0831.3,5.00,000.00,028.8,027.6,000.0,037.2,030.5,025.1,0000.0,0017.93,0006.44,0005.26
2024-06-13 16:12:00,SystemResetWarning,0831.3,5.01,000.00,028.9,027.9,000.0,037.2,030.6,024.8,0000.0,0017.52,0006.43,0005.27
2024-06-13 16:13:00,SystemResetWarning,0831.3,5.00,000.00,029.0,028.2,000.0,037.2,030.8,024.0,0000.0,0016.52,0006.43,0005.27
2024-06-13 16:14:00,SystemResetWarning,0831.3,4.99,000.00,029.0,028.4,000.0,037.2,030.9,024.0,0000.0,0017.03,0006.48,0005.28
2024-06-13 16:15:00,SystemResetWarning,0831.3,4.99,000.00,029.1,028.6,000.0,037.2,031.0,024.0,0000.0,0016.07,0006.51,0005.28
2024-06-13 16:16:00,SystemResetWarning,0831.3,5.00,000.00,029.2,028.6,000.0,037.3,031.0,024.6,0000.0,0016.37,0006.58,0005.30
2024-06-13 16:17:00,SystemResetWarning,0831.2,4.99,000.00,029.1,027.2,000.0,037.4,030.2,024.3,0000.0,0016.62,0006.56,0005.31
2024-06-13 16:18:00,SystemResetWarning,0831.3,5.01,000.00,028.7,025.8,000.0,037.4,029.6,026.2,0000.0,0016.78,0006.58,0005.32
2024-06-13 16:19:00,SystemResetWarning,0831.3,5.01,000.00,028.6,026.2,000.0,037.3,029.7,025.4,0000.0,0016.73,0006.62,0005.32
2024-06-13 16:20:00,SystemResetWarning,0831.3,5.00,000.00,028.6,026.7,000.0,037.2,030.0,024.0,0000.0,0016.28,0006.62,0005.32
2024-06-13 16:21:00,SystemResetWarning,0831.2,4.99,000.00,028.7,027.1,000.0,037.2,030.2,024.3,0000.0,0016.45,0006.64,0005.33
2024-06-13 16:22:00,SystemResetWarning,0831.3,5.00,000.00,028.7,027.5,000.0,037.1,030.4,025.7,0000.0,0016.83,0006.64,0005.32
2024-06-13 16:23:00,SystemResetWarning,0831.3,5.00,000.00,028.8,027.8,000.0,037.1,030.6,024.9,0000.0,0015.83,0006.67,0005.32
2024-06-13 16:24:00,SystemResetWarning,0831.3,5.00,000.00,028.9,028.1,000.0,037.1,030.7,023.7,0000.0,0016.50,0006.66,0005.31
2024-06-13 16:25:00,SystemResetWarning,0831.3,4.99,000.00,029.0,028.3,000.0,037.1,030.8,023.6,0000.0,0017.34,0006.64,0005.31
2024-06-13 16:26:00,SystemResetWarning,0831.3,4.99,000.00,029.1,028.5,000.0,037.2,030.9,024.0,0000.0,0018.62,0006.69,0005.32
2024-06-13 16:27:00,SystemResetWarning,0831.3,5.00,000.00,029.2,028.6,000.0,037.2,031.0,023.9,0000.0,0018.29,0006.63,0005.32
2024-06-13 16:28:00,SystemResetWarning,0831.3,5.00,000.00,029.1,027.5,000.0,037.3,030.4,023.9,0000.0,0018.10,0006.63,0005.32
2024-06-13 16:29:00,SystemResetWarning,0831.3,5.01,000.00,028.8,025.8,000.0,037.3,029.6,024.6,0000.0,0017.51,0006.62,0005.33
2024-06-13 16:30:00,SystemResetWarning,0831.3,5.02,000.00,028.6,026.0,000.0,037.3,029.6,024.8,0000.0,0018.40,0006.55,0005.32
2024-06-13 16:31:00,SystemResetWarning,0831.3,4.99,000.00,028.6,026.5,000.0,037.2,029.9,024.3,0000.0,0018.67,0006.50,0005.30
2024-06-13 16:32:00,SystemResetWarning,0831.3,5.00,000.00,028.6,026.9,000.0,037.1,030.1,024.4,0000.0,0018.82,0006.46,0005.30
2024-06-13 16:33:00,SystemResetWarning,0831.3,5.01,000.00,028.7,027.3,000.0,037.1,030.3,023.7,0000.0,0019.55,0006.43,0005.31
2024-06-13 16:34:00,SystemResetWarning,0831.3,5.00,000.00,028.8,027.7,000.0,037.1,030.5,023.4,0000.0,0019.43,0006.38,0005.32
2024-06-13 16:35:00,SystemResetWarning,0831.3,5.00,000.00,028.8,028.0,000.0,037.1,030.6,023.8,0000.0,0019.22,0006.38,0005.34
2024-06-13 16:36:00,SystemResetWarning,0831.3,5.00,000.00,028.9,028.2,000.0,037.1,030.7,023.9,0000.0,0017.94,0006.36,0005.33
2024-06-13 16:37:00,SystemResetWarning,0831.3,5.00,000.00,029.0,028.4,000.0,037.1,030.9,023.3,0000.0,0016.67,0006.34,0005.33
2024-06-13 16:38:00,SystemResetWarning,0831.3,4.99,000.00,029.1,028.6,000.0,037.1,031.0,022.6,0000.0,0017.30,0006.35,0005.34
2024-06-13 16:39:00,SystemResetWarning,0831.3,4.98,000.00,029.1,027.9,000.0,037.2,030.6,022.9,0000.0,0018.02,0006.36,0005.34
2024-06-13 16:40:00,SystemResetWarning,0831.3,5.01,000.00,028.8,026.1,000.0,037.3,029.7,023.6,0000.0,0019.33,0006.38,0005.33
2024-06-13 16:41:00,SystemResetWarning,0831.3,5.02,000.00,028.6,025.9,000.0,037.3,029.6,023.9,0000.0,0019.14,0006.42,0005.33
2024-06-13 16:42:00,SystemResetWarning,0831.3,4.99,000.00,028.6,026.5,000.0,037.2,029.8,024.5,0000.0,0019.38,0006.46,0005.35
2024-06-13 16:43:00,SystemResetWarning,0831.3,5.01,000.00,028.6,026.9,000.0,037.1,030.1,023.6,0000.0,0020.12,0006.52,0005.36
2024-06-13 16:44:00,SystemResetWarning,0831.3,5.00,000.00,028.7,027.3,000.0,037.0,030.3,024.0,0000.0,0020.38,0006.58,0005.36
2024-06-13 16:45:00,SystemResetWarning,0831.3,4.99,000.00,028.7,027.6,000.0,037.0,030.4,024.4,0000.0,0020.62,0006.64,0005.37
2024-06-13 16:46:00,SystemResetWarning,0831.3,5.00,000.00,028.8,027.9,000.0,037.0,030.6,026.0,0000.0,0021.39,0006.67,0005.37
2024-06-13 16:47:00,SystemResetWarning,0831.3,5.00,000.00,028.9,028.2,000.0,037.0,030.7,026.4,0000.0,0023.45,0006.77,0005.39
2024-06-13 16:48:00,SystemResetWarning,0831.3,5.01,000.00,029.0,028.4,000.0,037.1,030.8,025.0,0000.0,0024.94,0006.82,0005.40
2024-06-13 16:49:00,SystemResetWarning,0831.3,4.99,000.00,029.1,028.5,000.0,037.1,030.9,025.3,0000.0,0024.89,0006.90,0005.43
2024-06-13 16:50:00,SystemResetWarning,0831.3,4.98,000.00,028.9,027.2,000.0,037.2,030.2,026.5,0000.0,0027.35,0006.99,0005.47
2024-06-13 16:51:00,SystemResetWarning,0831.2,5.02,000.00,028.6,025.7,000.0,037.2,029.5,026.2,0000.0,0027.97,0007.12,0005.53
2024-06-13 16:52:00,SystemResetWarning,0831.3,5.00,000.00,028.5,026.1,000.0,037.2,029.6,026.7,0000.0,0028.40,0007.20,0005.56
2024-06-13 16:53:00,SystemResetWarning,0831.3,5.00,000.00,028.5,026.6,000.0,037.1,029.8,026.8,0000.0,0028.55,0007.27,0005.60
2024-06-13 16:54:00,SystemResetWarning,0831.3,5.00,000.00,028.5,027.0,000.0,037.0,030.1,026.0,0000.0,0028.73,0007.32,0005.64
2024-06-13 16:55:00,SystemResetWarning,0831.3,5.00,000.00,028.6,027.4,000.0,037.0,030.2,026.1,0000.0,0029.42,0007.31,0005.66
2024-06-13 16:56:00,SystemResetWarning,0831.3,5.00,000.00,028.7,027.7,000.0,037.0,030.4,026.7,0000.0,0030.30,0007.32,0005.68
2024-06-13 16:57:00,SystemResetWarning,0831.3,5.00,000.00,028.8,028.0,000.0,037.0,030.6,026.7,0000.0,0030.85,0007.36,0005.70
2024-06-13 16:58:00,SystemResetWarning,0831.3,4.99,000.00,028.9,028.2,000.0,037.0,030.7,025.5,0000.0,0029.07,0007.37,0005.72
2024-06-13 16:59:00,SystemResetWarning,0831.3,5.00,000.00,029.0,028.4,000.0,037.0,030.8,025.8,0000.0,0028.42,0007.36,0005.73
